Simultaneous Nadir Overpasses (SNOs) Predictions

Prediction of SNOs between LANDSAT-8 and NOAA-19 Satellite Orbit:

Table of predicted SNOs for the next 14.0 days since TLE Epoch: 8/5/2023
Index Date (LANDSAT-8) Time (LANDSAT-8) Lat,Lon (LANDSAT-8) SZA (LANDSAT-8 ) Date (NOAA-19) Time (NOAA-19) Lat,Lon (NOAA-19) SZA (NOAA-19 ) Distance(km) Time Diff (sec)
1 08/06/2023 09:53:32 80.94, 68.96 65.99 08/06/2023 09:52:48 80.94, 69.04 65.98 1.43 44
2 08/06/2023 10:42:59 -80.93,-123.45 114.01 08/06/2023 10:43:46 -80.94,-123.54 114.00 1.74 47
3 08/08/2023 16:16:43 80.92, -27.02 66.60 08/08/2023 16:16:13 80.94, -26.90 66.61 2.53 30
4 08/08/2023 17:06:09 -80.95, 140.95 113.34 08/08/2023 17:07:10 -80.94, 141.13 113.30 3.23 61
5 08/10/2023 22:39:52 80.95,-122.41 67.32 08/10/2023 22:39:37 80.94,-122.53 67.29 2.60 15
6 08/13/2023 05:03:02 80.94, 141.71 67.99 08/13/2023 05:03:01 80.94, 141.77 67.99 1.26 1
7 08/15/2023 11:26:12 80.93, 45.71 68.66 08/15/2023 11:26:26 80.93, 45.62 68.67 1.72 14
8 08/17/2023 16:59:55 -80.93, 142.34 110.62 08/17/2023 16:58:53 -80.93, 142.41 110.64 1.19 62



Historial Predications of SNOs between LANDSAT-8 and NOAA-19
